Location: Caltech
(34.1382°N, 118.1253°W)
Time: 22:57:23
(UTC-07:00)

Aureole 2 Rocket - Visible Passes

Search period start: 31 August 2015 00:00
Search period end: 10 September 2015 00:00
Orbit: 341 x 670 km, 73.9° (Epoch: 31 August)

Date Brightness Start Highest point End Pass type
(mag) Time Alt. Az. Time Alt. Az. Time Alt. Az.
31 Aug 2.5 05:17:21 33° WSW 05:17:58 38° WNW 05:20:39 10° N visible
01 Sep 2.5 04:59:54 44° NW 04:59:54 44° NW 05:02:13 10° N visible
02 Sep 3.7 04:42:20 26° N 04:42:20 26° N 04:43:44 10° N visible
03 Sep 4.8 04:24:40 15° NNE 04:24:40 15° NNE 04:25:13 10° NNE visible
